Other Public Products
Issued by NWS Grand Forks, ND

Home | Current Version | Previous Version | Graphics & Text | Print | Product List | Glossary On
Versions: 1 2 3 4 5 6 7 8 9 10 11 12 13 14 15 16 17 18 19 20 21 22 23 24 25 26 27 28 29 30 31 32 33 34 35 36 37 38 39 40 41 42 43 44 45 46 47 48 49 50
000
FPUS83 KFGF 301910
OPUFGF
PRAIRIE TO PINES WEATHER ROUNDUP
NATIONAL WEATHER SERVICE EASTERN NORTH DAKOTA/GRAND FORKS ND
200 PM CDT FRI SEP 30 2016

 **SATELLITE DATA USED TO AUGMENT SKY COVER AT AUTOMATED STATIONS**
 *****  WEATHER ACROSS EASTERN NORTH DAKOTA  *****

CITY           SKY/WX    TMP DP  RH WIND       PRES   REMARKS
GRAND FORKS    CLOUDY    68  51  54 S14G22    30.24F
GRAND FORKS AF CLOUDY    65  51  60 S15       30.24F
GRAND CITY NWS   N/A     66 N/A N/A SE12        N/A
BUXTON         NOT AVBL
DEVILS LAKE    CLOUDY    67  50  54 S21G28    30.19F
FARGO          MOSUNNY   69  50  50 SE14G21   30.24F
WAHPETON ARPT  CLEAR     70  45  40 SE13G21   30.26F
$$

 *****  WEATHER ACROSS CENTRAL AND WESTERN NORTH DAKOTA  *****

CITY           SKY/WX    TMP DP  RH WIND       PRES   REMARKS
JAMESTOWN      PTSUNNY   68  49  50 S21       30.19F
BISMARCK       PTSUNNY   72  49  44 SE17      30.11F
MINOT          CLOUDY    64  48  56 SE13G21   30.09S
MINOT AFB      CLOUDY    62  49  60 S13       30.08S
GARRISON         N/A     60  49  66 SE9       30.09F
WILLISTON      MOSUNNY   63  49  60 S9G20     30.01S
DICKINSON      CLOUDY    64  45  49 SE17      30.03F
HETTINGER      CLOUDY    64  44  48 SE16      30.08F
$$

 *****  OTHER OBSERVATIONS NORTHEAST NORTH DAKOTA  *****

CITY           SKY/WX    TMP DP  RH WIND       PRES   REMARKS
WALHALLA       FAIR      63  59  88 SE15      30.22F
LANGDON        FAIR      64  52  63 S17G26    30.21F
CAVALIER       FAIR      66  52  59 S15       30.24F
GRAFTON        FAIR      66  54  63 SE15      30.26F
CANDO          FAIR      64  50  59 S20G26    30.20F
FORT TOTTEN    NOT AVBL
ROLLA          FAIR      63  48  59 S17G28    30.17F
RUGBY          FAIR      64  50  59 SE20      30.13F
 ***** THE ABOVE OBSERVATIONS ARE NON NWS ARE NOT QUALITY
        CONTROLLED AND MAY MIS-REPORT RAIN FOR SNOW...
$$

 *****  OTHER OBSERVATIONS SOUTHEAST NORTH DAKOTA *****

CITY           SKY/WX    TMP DP  RH WIND       PRES   REMARKS
COOPERSTOWN    FAIR      68  48  49 S21G29    30.22F
VALLEY CITY    FAIR      66  50  55 S18G24    30.24F
OAKES          NOT AVBL
GWINNER        FAIR      72  46  40 S17G23    30.24F
SHEYENNE NWR     N/A     66  48  53 S14       29.95S
BUFFALO        NOT AVBL
WYNDMERE       NOT AVBL
 ***** THE ABOVE OBSERVATIONS ARE NON NWS ARE NOT QUALITY
       CONTROLLED AND MAY MIS-REPORT RAIN FOR SNOW...
$$

  *****  WEATHER ACROSS NORTHERN MINNESOTA  *****

CITY           SKY/WX    TMP DP  RH WIND       PRES   REMARKS
FLAG ISLAND    MOSUNNY   55  52  88 S17       30.32F
WARROAD        SUNNY     61  54  77 SE10      30.33F
ROSEAU         SUNNY     61  54  77 SE12      30.31F
HALLOCK        PTSUNNY   66  54  63 S12       30.25F
THF RVR FALLS  MOSUNNY   63  53  70 SE12G18   30.29F
HALSTAD          N/A     69  50  51 S14         N/A
FOSSTON        SUNNY     66  48  52 S13G20    30.30F
BAUDETTE       CLOUDY    52  49  89 SE12      30.37F
WASKISH        CLOUDY    55  54  94 E7          N/A
CROOKSTON      CLOUDY    66  52  59 S13       30.27F
$$
  *****  WEATHER ACROSS CENTRAL AND WEST MINNESOTA  *****

CITY           SKY/WX    TMP DP  RH WIND       PRES   REMARKS
BEMIDJI        CLOUDY    56  51  84 E10       30.35F
PARK RAPIDS    MOSUNNY   62  51  67 E6        30.33F
WADENA         CLOUDY    59  52  77 SE8       30.32F
DETROIT LAKES  SUNNY     61  52  72 SE10      30.31F
MOORHEAD       SUNNY     70  50  49 S16       30.26F
FERGUS FALLS   CLOUDY    66  54  63 SE12      30.30F
ELBOW LAKE     FAIR      65  54  68 SE10G16   30.30F
MORRIS MN      SUNNY     70  54  56 SE9G16    30.28F
STAPLES        SUNNY     61  50  67 E5        30.33F
WHEATON        NOT AVBL
$$
  *****  WEATHER ELSEWHERE ACROSS MINNESOTA  *****

CITY           SKY/WX    TMP DP  RH WIND       PRES   REMARKS
DULUTH         PTSUNNY   55  51  86 E14       30.39F
INTRNTL FALLS  CLOUDY    53  50  89 SE8       30.38F
ELY            SUNNY     66  45  45 SE6       30.38F
CLOQUET        PTSUNNY   55  48  76 E8        30.38F
BRAINERD       SUNNY     63  52  67 NE6       30.35F
HIBBING        SUNNY     62  51  67 SE5       30.37F
ALEXANDRIA     CLOUDY    63  54  72 E7        30.33F
SAINT CLOUD    SUNNY     66  53  63 E7        30.32F
MINNEAPOLIS    SUNNY     68  53  58 NE8G17    30.29F
$$

  *****  WEATHER ACROSS SOUTH DAKOTA  *****

CITY           SKY/WX    TMP DP  RH WIND       PRES   REMARKS
SIOUX FALLS    MOSUNNY   72  49  44 SE12G22   30.24F
BROOKINGS      MOSUNNY   69  47  45 SE14G20   30.24F
WATERTOWN      SUNNY     70  48  45 S13       30.24F
HURON          SUNNY     71  46  40 S12G22    30.21F
SISSETON         N/A     70  48  45 S13G21    30.24F
ABERDEEN       SUNNY     71  45  39 S16       30.20F
MITCHELL       MOSUNNY   73  45  36 S16       30.22F
PIERRE         MOSUNNY   69  46  43 S20G30    30.12F
MOBRIDGE       MOSUNNY   74  45  35 SE29G37   30.09F
RAPID CITY     MOSUNNY   69  48  47 S13       30.06F
$$

  *****  SOME WEATHER IN NEARBY STATES *****

CITY           SKY/WX    TMP DP  RH WIND       PRES   REMARKS
GLASGOW MT     CLOUDY    74  50  42 S8        29.94F
GREAT FALLS MT CLOUDY    73  48  41 NW6       30.03S
CHEYENNE WY    CLOUDY    65  48  54 CALM      30.27F
SCOTTSBLUFF NE LGT RAIN  63  46  54 CALM      30.17F
OMAHA NE       MOSUNNY   74  47  38 E9        30.21F
DES MOINES IA  CLOUDY    64  54  69 NE9       30.22F
DAVENPORT IA   CLOUDY    64  57  78 N8        30.16F
CHICAGO IL     CLOUDY    64  59  83 NE13      30.09F
EAU CLAIRE WI  SUNNY     71  52  50 N8        30.26F
LA CROSSE WI   CLOUDY    69  56  62 NE3       30.23F
$$

  *****  SOME NATIONAL WEATHER *****

CITY           SKY/WX    TMP DP  RH WIND       PRES   REMARKS
LA GUARDIA NY  RAIN      63  58  83 NE30G36   30.25F
RALEIGH NC     PTSUNNY   80  70  71 SE12G22   29.97F
ATLANTA GA     MOSUNNY   71  49  45 W12       30.04F
NEW ORLEANS LA MOSUNNY   82  55  39 N9        30.09F
OKLAHOMA CITY  MOSUNNY   74  44  34 NW6       30.19F
ALBUQUERQUE NM MOSUNNY   70  49  47 CALM      30.29F
SALT LAKE CITY MOSUNNY   75  48  38 S18       30.18F
LOS ANGELES CA MOSUNNY   79  59  50 W10       30.03F
BOISE ID       SUNNY     83  37  19 S9        30.02F
SEATTLE WA     MOSUNNY   56  47  71 W5        30.03F HAZE
$$

*** WEATHER ACROSS MANITOBA...SASKATCHEWAN AND ONTARIO ***
                ***ONTARIO***

CITY           SKY/WX    TMP DP  RH WIND       PRES   REMARKS
GERALDTON      PTSUNNY   66  48  52 SE5       30.43F
THUNDER BAY    MOSUNNY   66  52  59 E9        30.40F
SIOUX LOOKOUT  MOSUNNY   64  52  63 SE7G18    30.38F
TORONTO        PTSUNNY   64  50  59 E17G26    30.27F
BIG TROUT LK   SUNNY     63  50  63 S8        30.35F
PICKLE LAKE    MOSUNNY   59  46  63 S6        30.41F
DRYDEN         SUNNY     61  50  67 S12       30.38F
KENORA         NOT AVBL
$$
                *** MANITOBA***

CITY           SKY/WX    TMP DP  RH WIND       PRES   REMARKS
BRANDON        PTSUNNY   66  50  55 SE18G25   30.14F
DAUPHIN        MOSUNNY   63  52  67 SE14      30.11F
ISLAND LAKE    MOSUNNY   66  50  55 S10       30.27F
PILOT MOUND      N/A     68  50  52 S22G29      N/A
THE PAS        MOSUNNY   64  52  63 SE13      30.08F
THOMPSON       CLOUDY    55  54  94 E5        30.19F
WINNIPEG       CLOUDY    66  50  55 S18G26    30.24F
LYNN LAKE      LGT RAIN  48  48 100 NE7       30.20R FOG
CHURCHILL      MOSUNNY   48  39  71 NE9       30.34S
GILLAM         LGT RAIN  54  52  94 E5        30.25F
$$
                ***SASKATCHEWAN***

CITY           SKY/WX    TMP DP  RH WIND       PRES   REMARKS
ESTEVAN        LGT RAIN  55  52  88 SE10      30.03F
KINDERSLEY     PTSUNNY   59  50  72 N5        29.99F
LLOYDMINSTER   PTSUNNY   57  48  72 E5        30.02R
PRINCE ALBERT  MOSUNNY   63  50  63 E12       29.98F
REGINA         MOSUNNY   70  50  49 SE20      29.97F
YORKTON        SUNNY     66  48  52 S17G25    30.03F   C1F1C2F2C3F3C4F4C5F5C6F6C7F7C8F8C9F9CaFaCbFbCcFcCdFdCe!



USA.gov is the U.S. government's official web portal to all federal, state and local government web resources and services.